Date String (YYYY-MM-DD hh:mm:ss) UTC,Instrument flags,absolute air pressure of the measurement (hPa),sample flow rate (lpm),inlet stack bypass flow (lpm),air temperature of the measurement (°C),ambient temperature measured by the external sensor (°C),aerosol sample conditioner tube jacket temperature (°C),OPC LED temperature (°C),internal box temperature (°C),relative humidity of the measurement (%),span deviation,mass concentration of particles derived from Lorenz-Mie calculation of OPC scattering (μg/m³),mass concentration of particles derived from Lorenz-Mie calculation of OPC scattering (μg/m³),mass concentration of particles derived from Lorenz-Mie calculation of OPC scattering (μg/m³)
DateTimeUTC,F1_M11,P_M11,Q1_M11,Q2_M11,T1_M11,T2_M11,T3_M11,T4_M11,T5_M11,U1_M11,ZSPAN_M11,X0_M11,X2_M11,X1_M11
2023-07-24 23:00:00,SystemResetWarning,0834.2,4.98,000.00,030.2,026.6,000.0,038.0,030.8,27.1,0000.0,0014.10,0005.27,0004.19
2023-07-24 23:01:00,SystemResetWarning,0834.1,5.01,000.00,030.1,025.1,000.0,037.9,030.5,27.3,0000.0,0014.38,0005.25,0004.18
2023-07-24 23:02:00,SystemResetWarning,0834.1,5.00,000.00,030.0,024.7,000.0,037.8,030.3,27.4,0000.0,0014.88,0005.20,0004.15
2023-07-24 23:03:00,SystemResetWarning,0834.1,5.01,000.00,029.9,025.0,000.0,037.8,030.2,27.9,0000.0,0015.14,0005.12,0004.12
2023-07-24 23:04:00,SystemResetWarning,0834.0,4.99,000.00,029.8,025.5,000.0,037.8,030.3,28.0,0000.0,0015.42,0005.09,0004.11
2023-07-24 23:05:00,SystemResetWarning,0834.1,5.00,000.00,029.8,026.0,000.0,037.9,030.4,28.3,0000.0,0015.45,0005.06,0004.08
2023-07-24 23:06:00,SystemResetWarning,0834.0,5.01,000.00,029.8,026.4,000.0,037.9,030.5,28.1,0000.0,0014.67,0005.00,0004.07
2023-07-24 23:07:00,SystemResetWarning,0834.0,5.00,000.00,029.8,026.8,000.0,037.9,030.6,27.4,0000.0,0014.28,0004.91,0004.05
2023-07-24 23:08:00,SystemResetWarning,0834.0,4.99,000.00,029.8,027.2,000.0,037.9,030.7,27.6,0000.0,0013.85,0004.85,0004.03
2023-07-24 23:09:00,SystemResetWarning,0834.0,4.98,000.00,029.8,026.6,000.0,037.8,030.7,27.8,0000.0,0013.57,0004.86,0004.02
2023-07-24 23:10:00,SystemResetWarning,0834.0,5.01,000.00,029.7,025.1,000.0,037.7,030.5,28.3,0000.0,0013.14,0004.87,0004.00
2023-07-24 23:11:00,SystemResetWarning,0833.9,5.01,000.00,029.7,024.6,000.0,037.6,030.3,29.1,0000.0,0012.25,0004.83,0003.98
2023-07-24 23:12:00,SystemResetWarning,0833.9,5.00,000.00,029.5,024.9,000.0,037.6,030.1,29.3,0000.0,0011.89,0004.84,0003.97
2023-07-24 23:13:00,SystemResetWarning,0833.9,4.99,000.00,029.5,025.4,000.0,037.7,030.2,29.9,0000.0,0011.40,0004.83,0003.96
2023-07-24 23:14:00,SystemResetWarning,0834.0,5.01,000.00,029.4,025.9,000.0,037.7,030.3,29.5,0000.0,0010.63,0004.86,0003.95
2023-07-24 23:15:00,SystemResetWarning,0834.0,5.00,000.00,029.4,026.3,000.0,037.7,030.4,29.6,0000.0,0010.55,0004.86,0003.95
2023-07-24 23:16:00,SystemResetWarning,0834.0,5.00,000.00,029.4,026.8,000.0,037.7,030.5,29.5,0000.0,0010.75,0004.85,0003.96
2023-07-24 23:17:00,SystemResetWarning,0834.0,5.00,000.00,029.5,027.1,000.0,037.7,030.6,29.5,0000.0,0010.61,0004.89,0003.98
2023-07-24 23:18:00,SystemResetWarning,0833.9,5.00,000.00,029.5,027.3,000.0,037.7,030.7,29.9,0000.0,0011.85,0005.01,0004.01
2023-07-24 23:19:00,SystemResetWarning,0833.9,4.98,000.00,029.5,026.1,000.0,037.6,030.5,28.9,0000.0,0012.81,0005.05,0004.02
2023-07-24 23:20:00,SystemResetWarning,0833.9,5.01,000.00,029.4,024.9,000.0,037.5,030.3,28.3,0000.0,0013.16,0005.07,0004.04
2023-07-24 23:21:00,SystemResetWarning,0833.9,5.01,000.00,029.3,024.9,000.0,037.4,030.2,27.0,0000.0,0014.36,0005.02,0004.04
2023-07-24 23:22:00,SystemResetWarning,0833.9,4.99,000.00,029.3,025.3,000.0,037.4,030.1,27.8,0000.0,0015.18,0005.04,0004.06
2023-07-24 23:23:00,SystemResetWarning,0833.9,5.00,000.00,029.2,025.7,000.0,037.5,030.2,27.3,0000.0,0017.37,0005.01,0004.06
2023-07-24 23:24:00,SystemResetWarning,0833.9,5.00,000.00,029.2,026.2,000.0,037.5,030.3,26.5,0000.0,0018.18,0004.99,0004.07
2023-07-24 23:25:00,SystemResetWarning,0833.9,5.00,000.00,029.2,026.6,000.0,037.5,030.4,27.0,0000.0,0019.86,0004.99,0004.08
2023-07-24 23:26:00,SystemResetWarning,0834.0,5.00,000.00,029.3,027.0,000.0,037.5,030.5,26.9,0000.0,0019.90,0004.97,0004.07
2023-07-24 23:27:00,SystemResetWarning,0834.0,4.99,000.00,029.3,027.2,000.0,037.5,030.6,27.4,0000.0,0019.87,0005.00,0004.07
2023-07-24 23:28:00,SystemResetWarning,0834.0,4.99,000.00,029.3,026.2,000.0,037.4,030.5,28.5,0000.0,0019.95,0005.08,0004.08
2023-07-24 23:29:00,SystemResetWarning,0834.0,5.01,000.00,029.2,025.0,000.0,037.3,030.3,28.8,0000.0,0018.92,0005.04,0004.06
2023-07-24 23:30:00,SystemResetWarning,0834.0,5.01,000.00,029.1,024.9,000.0,037.2,030.1,28.6,0000.0,0018.08,0005.04,0004.06
2023-07-24 23:31:00,SystemResetWarning,0834.1,5.01,000.00,029.0,025.3,000.0,037.3,030.0,29.1,0000.0,0017.97,0005.06,0004.06
2023-07-24 23:32:00,SystemResetWarning,0834.1,5.00,000.00,029.0,025.7,000.0,037.3,030.1,29.6,0000.0,0017.16,0005.12,0004.06
2023-07-24 23:33:00,SystemResetWarning,0834.2,5.00,000.00,029.0,026.2,000.0,037.3,030.3,31.1,0000.0,0017.73,0005.16,0004.08
2023-07-24 23:34:00,SystemResetWarning,0834.2,5.00,000.00,029.0,026.6,000.0,037.3,030.4,30.5,0000.0,0016.28,0005.18,0004.09
2023-07-24 23:35:00,SystemResetWarning,0834.2,5.00,000.00,029.1,027.0,000.0,037.4,030.5,31.0,0000.0,0015.66,0005.19,0004.09
2023-07-24 23:36:00,SystemResetWarning,0834.2,4.99,000.00,029.1,027.3,000.0,037.4,030.6,29.3,0000.0,0014.14,0005.18,0004.09
2023-07-24 23:37:00,SystemResetWarning,0834.3,4.99,000.00,029.1,026.3,000.0,037.3,030.5,29.5,0000.0,0013.28,0005.17,0004.09
2023-07-24 23:38:00,SystemResetWarning,0834.5,5.01,000.00,029.1,025.1,000.0,037.1,030.3,28.7,0000.0,0013.58,0005.13,0004.07
2023-07-24 23:39:00,SystemResetWarning,0834.6,5.00,000.00,029.0,024.9,000.0,037.1,030.2,27.4,0000.0,0014.55,0005.12,0004.05
2023-07-24 23:40:00,SystemResetWarning,0834.2,5.02,000.00,028.9,025.3,000.0,037.1,030.1,28.1,0000.0,0014.77,0005.13,0004.05
2023-07-24 23:41:00,SystemResetWarning,0834.3,4.99,000.00,028.9,025.7,000.0,037.2,030.1,28.2,0000.0,0015.04,0005.13,0004.04
2023-07-24 23:42:00,SystemResetWarning,0834.3,5.00,000.00,028.9,026.2,000.0,037.2,030.2,28.9,0000.0,0015.23,0005.11,0004.02
2023-07-24 23:43:00,SystemResetWarning,0834.4,5.00,000.00,028.9,026.6,000.0,037.2,030.3,26.6,0000.0,0014.85,0005.04,0004.01
2023-07-24 23:44:00,SystemResetWarning,0834.4,5.00,000.00,028.9,027.0,000.0,037.2,030.5,25.8,0000.0,0013.52,0005.02,0003.99
2023-07-24 23:45:00,SystemResetWarning,0834.5,5.01,000.00,029.0,027.3,000.0,037.2,030.5,26.6,0000.0,0012.91,0005.06,0003.98
2023-07-24 23:46:00,SystemResetWarning,0834.5,4.99,000.00,029.0,026.5,000.0,037.2,030.4,27.1,0000.0,0013.68,0005.11,0003.98
2023-07-24 23:47:00,SystemResetWarning,0834.5,4.99,000.00,028.9,025.2,000.0,037.0,030.2,27.8,0000.0,0013.80,0005.14,0003.98
2023-07-24 23:48:00,SystemResetWarning,0834.5,5.01,000.00,028.9,024.9,000.0,037.0,030.1,29.2,0000.0,0014.30,0005.19,0003.98
2023-07-24 23:49:00,SystemResetWarning,0834.5,5.02,000.00,028.8,025.2,000.0,037.0,030.0,29.8,0000.0,0013.35,0005.23,0003.98
2023-07-24 23:50:00,SystemResetWarning,0834.4,4.99,000.00,028.8,025.7,000.0,037.1,030.1,29.9,0000.0,0012.79,0005.22,0003.99
2023-07-24 23:51:00,SystemResetWarning,0834.4,4.98,000.00,028.8,026.2,000.0,037.1,030.2,34.1,0000.0,0014.02,0005.21,0003.99
2023-07-24 23:52:00,SystemResetWarning,0834.4,5.02,000.00,028.9,026.6,000.0,037.1,030.3,36.8,0000.0,0014.01,0005.19,0003.99
2023-07-24 23:53:00,SystemResetWarning,0834.4,4.99,000.00,029.1,027.0,000.0,037.1,030.6,35.5,0000.0,0013.80,0005.18,0004.00
2023-07-24 23:54:00,SystemResetWarning,0834.4,5.02,000.00,029.5,026.9,000.0,037.1,030.8,35.3,0000.0,0014.18,0005.17,0004.00
2023-07-24 23:55:00,SystemResetWarning,0834.4,4.98,000.00,029.8,025.6,000.0,037.1,030.6,33.5,0000.0,0014.49,0005.17,0003.99
2023-07-24 23:56:00,SystemResetWarning,0834.3,5.01,000.00,029.9,024.8,000.0,037.0,030.4,32.8,0000.0,0014.56,0005.17,0003.99
2023-07-24 23:57:00,SystemResetWarning,0834.5,5.00,000.00,030.0,024.9,000.0,037.1,030.2,31.8,0000.0,0014.39,0005.20,0003.99
2023-07-24 23:58:00,SystemResetWarning,0834.4,5.00,000.00,029.9,025.3,000.0,037.3,030.2,32.0,0000.0,0014.38,0005.19,0003.99
2023-07-24 23:59:00,SystemResetWarning,0834.4,5.00,000.00,029.9,025.8,000.0,037.4,030.3,32.2,0000.0,0014.14,0005.19,0003.99
